Voltar ao catálogo

FENGYUN 1C DEB

AtivoPO
NORAD 31177·DEBRIS·🇨🇳 China

Lançado May 10, 1999 de Taiyuan Satellite Launch Center

Loading…

Próximas Passagens (próximas 24 horas)

TLE

AtualizadoSource: Space-Track

Época: Sep 14, 2026, 15:22 UTC

1 31177U 99025BJF 26257.64054095  .00002475  00000-0  23098-2 0  9991
2 31177  98.7560 148.9645 0303755 311.7141  74.5257 13.64043025699714

Acompanhe FENGYUN 1C DEB em tempo real com AllMySat

Download on the App Store